Wind_Speed
15 14 14 14 13 12 11 11 10 7 6 5 3 2 1 0 1 1 2 2 3 3 3 4 5 5 5 6 6 6 6 7 7 7 7 7 8 8 8 9 9 9 9
15 15 14 14 13 12 12 11 10 8 6 4 4 2 2 1 1 1 1 2 3 4 4 4 5 6 6 7 8 8 8 8 9 8 8 8 9 10 10 10 11 11 12
14 14 14 14 13 12 11 11 10 8 6 5 4 3 3 2 2 2 2 3 4 4 4 5 5 7 8 8 8 9 9 9 10 10 10 10 10 11 11 12 12 12 13
13 14 14 13 13 13 11 11 10 8 7 6 5 3 3 3 3 3 3 3 4 4 5 5 6 7 7 8 9 10 10 10 10 11 11 12 12 12 12 13 13 13 14
13 14 14 13 12 12 11 10 10 9 7 6 5 4 3 3 4 4 4 4 4 5 6 6 7 8 8 9 10 11 11 11 12 12 12 13 13 13 14 14 15 15 14
12 13 13 12 12 12 11 10 10 9 8 6 5 4 4 4 5 5 5 5 5 5 6 7 8 9 9 10 10 10 11 12 13 13 14 15 15 15 15 15 16 16 16
12 13 13 12 12 11 10 10 10 9 8 7 5 5 5 5 6 6 6 6 6 6 7 7 8 9 9 10 10 11 11 12 12 13 14 14 15 16 16 16 17 18 18
11 12 12 11 11 11 10 10 10 9 8 8 6 6 6 6 6 7 7 7 7 7 8 8 8 9 10 11 11 12 12 12 12 12 13 15 15 16 16 17 18 18 18
10 11 12 11 11 10 10 10 9 9 8 8 7 7 7 6 7 7 8 8 7 8 9 9 10 10 10 11 12 12 13 13 13 13 13 14 15 16 17 17 18 17 17
11 11 11 10 10 10 10 10 9 9 9 8 8 8 7 7 7 7 7 7 7 8 8 9 10 10 10 11 12 12 13 14 14 14 15 15 16 16 17 17 17 17 17
11 11 10 10 10 10 9 9 9 9 9 9 9 8 8 8 8 8 8 8 9 9 9 10 10 10 11 11 11 12 13 14 14 14 15 16 16 17 16 17 17 17 17
10 11 10 10 10 10 10 9 9 9 9 9 9 9 9 9 9 9 10 10 10 10 10 10 11 11 11 11 12 13 14 14 14 14 14 15 15 15 16 16 17 17 18
12 11 11 10 10 10 10 10 10 10 10 10 9 9 10 10 10 11 11 11 11 11 11 11 12 12 12 12 13 13 14 14 14 15 15 16 16 16 16 16 17 18 18
12 12 11 11 11 11 11 11 11 10 11 11 10 10 11 11 11 12 13 13 12 12 12 12 13 13 13 13 13 13 14 14 15 15 16 16 16 17 17 17 17 18 18
13 13 12 12 12 12 12 12 12 12 12 13 13 13 12 13 13 13 13 13 13 13 13 14 14 14 14 14 14 14 15 15 16 16 17 17 17 18 18 19 19 19 20
15 15 14 14 14 14 14 14 13 14 14 15 14 14 14 15 15 15 15 15 15 15 15 15 16 16 16 15 15 16 16 17 16 17 18 18 19 19 20 20 20 21 21
17 16 17 17 17 17 17 16 16 16 16 16 16 16 16 17 16 16 17 16 16 16 17 17 17 18 17 17 16 17 18 18 18 18 18 19 19 20 21 21 22 22 22
19 18 19 19 20 19 18 18 18 18 18 18 18 18 18 19 18 18 18 19 18 18 18 18 18 19 19 18 18 18 19 18 19 19 20 20 20 21 21 21 22 22 22
22 22 22 22 22 22 20 20 19 19 20 19 19 20 20 20 20 20 20 19 19 20 20 20 21 21 20 20 20 20 20 20 20 20 21 21 21 22 23 23 23 23 24
24 25 25 25 25 25 24 23 22 22 22 22 22 22 22 22 22 22 22 22 22 22 22 22 22 23 23 22 22 22 22 22 22 22 22 23 24 24 24 24 25 25 26
27 27 28 28 28 28 27 25 25 25 25 25 25 25 24 24 24 24 24 24 25 24 24 24 24 24 25 25 24 24 23 24 24 24 24 25 25 26 26 27 27 28 28
30 30 30 30 31 31 30 29 29 28 28 28 29 28 27 27 27 26 26 26 27 27 27 27 27 27 27 26 26 25 25 25 26 26 27 27 27 28 28 29 30 30 30
32 32 33 33 33 32 32 32 32 32 31 31 30 30 30 29 29 29 29 29 29 30 30 30 29 29 29 29 29 28 27 27 27 28 29 29 29 30 31 31 31 31 31
34 34 34 34 34 34 34 34 35 34 33 33 32 32 32 32 32 32 31 32 32 31 31 31 31 31 31 30 30 30 30 30 29 29 30 30 31 31 32 31 31 31 31
35 36 36 35 36 36 36 35 35 35 35 34 35 35 35 35 34 34 34 34 34 34 32 32 32 32 32 32 32 31 32 32 32 32 32 32 32 32 32 32 32 32 32
36 37 37 37 37 37 36 35 35 37 37 37 37 37 37 37 37 36 36 36 36 34 35 35 34 33 33 33 33 33 33 34 34 34 34 34 33 33 33 33 33 33 33
Wind_Direction
3 4 6 7 7 8 6 5 5 2 3 12 19 20 23 65 181 180 203 217 218 221 227 229 230 230 230 231 234 238 244 248 253 260 262 265 269 272 277 277 277 280 280
360 359 2 2 2 5 6 3 2 357 355 0 359 358 357 320 305 261 247 244 241 237 243 247 245 246 247 244 245 250 254 254 255 260 264 268 271 272 276 277 277 279 282
359 359 360 359 0 1 358 357 357 353 347 348 348 346 351 351 347 319 293 277 265 256 251 252 256 257 257 257 256 257 259 259 261 263 263 266 271 275 277 277 278 278 279
357 358 357 357 357 358 356 354 352 351 344 334 337 334 337 327 318 318 305 288 277 266 261 263 261 262 262 262 264 265 264 261 262 265 266 266 270 275 277 279 280 281 281
352 354 354 354 357 358 356 354 352 353 348 336 329 324 320 315 313 319 315 298 285 275 269 269 265 266 266 270 271 270 269 265 265 267 270 271 271 273 275 276 279 281 281
345 349 351 353 355 355 358 357 355 351 346 339 328 329 329 316 317 315 310 304 296 286 278 274 273 272 272 274 278 276 275 271 272 271 271 272 270 272 273 275 277 278 279
339 344 348 352 354 353 355 357 355 353 351 342 335 336 337 329 323 320 312 306 301 296 288 283 282 280 279 280 281 280 278 277 276 276 275 274 272 273 275 274 275 277 278
334 339 345 349 351 352 354 356 355 353 350 344 340 336 335 334 328 327 319 309 303 299 295 290 287 283 282 284 284 285 283 282 281 280 280 278 274 275 276 277 277 278 278
327 334 339 345 347 350 352 352 352 351 348 344 336 332 329 332 328 325 325 313 310 307 301 298 291 289 288 287 287 285 285 283 281 281 282 282 280 281 279 279 280 281 279
321 329 335 339 343 348 349 348 348 348 345 341 337 333 330 329 325 326 327 323 316 312 309 304 299 291 292 292 291 288 289 288 285 282 283 285 283 281 282 282 283 282 280
312 321 326 332 339 344 345 344 343 341 340 338 335 333 330 328 324 322 321 323 325 319 316 315 311 307 302 297 293 294 291 292 289 287 286 288 289 286 284 284 285 283 281
303 308 315 322 331 336 337 337 339 338 336 334 332 331 330 328 323 321 318 316 317 315 312 311 310 310 308 301 295 296 296 295 292 291 292 294 294 294 289 287 285 285 286
293 301 305 313 321 326 329 330 331 335 334 331 329 327 325 324 323 321 321 320 315 314 315 313 312 310 307 303 298 296 296 296 294 293 294 294 294 293 294 292 292 291 290
284 292 298 305 313 318 320 322 323 326 327 326 324 323 322 320 320 322 319 318 316 313 313 313 314 313 308 303 301 298 295 294 295 296 296 295 294 293 293 292 294 294 291
275 280 287 294 301 306 309 312 314 317 318 319 317 317 317 316 316 317 316 314 312 311 311 312 312 313 309 304 300 301 298 297 296 296 297 297 295 295 293 291 291 292 293
268 272 278 285 291 295 299 300 303 309 311 311 310 310 311 311 310 311 311 310 309 309 309 309 309 310 307 303 299 298 299 299 298 297 298 297 295 294 293 292 291 292 293
264 267 272 278 283 287 291 294 299 302 307 307 305 302 304 304 304 306 307 307 308 307 307 307 307 307 305 301 298 297 298 300 298 297 297 297 296 294 293 293 292 293 294
260 264 268 272 278 283 287 290 295 300 303 303 302 297 296 299 298 302 304 306 306 305 303 303 304 305 306 302 298 298 297 297 296 296 295 295 296 295 294 294 293 293 293
259 262 266 271 277 281 284 287 290 295 299 300 301 296 294 296 296 300 303 302 302 304 301 299 301 302 302 302 300 298 297 296 295 296 296 295 295 295 295 294 293 293 293
258 261 265 270 275 278 281 283 286 290 293 294 296 295 290 290 293 296 298 297 298 299 299 299 299 300 300 300 299 297 297 297 296 296 296 295 293 294 294 293 293 294 294
259 260 264 268 271 275 277 279 283 285 287 289 291 291 289 289 289 291 293 294 296 297 297 297 298 298 298 297 296 296 296 295 295 295 295 294 293 293 293 293 293 293 293
260 261 263 265 267 271 273 277 280 281 283 284 287 288 288 288 289 290 292 294 296 296 296 296 295 295 294 294 293 292 293 293 293 294 295 295 294 293 294 294 294 293 292
260 260 261 263 264 267 269 272 276 278 280 283 286 287 289 288 287 288 290 292 295 296 295 294 293 293 292 293 292 291 290 290 291 292 293 294 294 294 294 294 294 293 292
259 259 260 262 265 267 270 270 272 274 277 280 284 286 286 285 284 286 289 290 291 294 294 292 291 291 291 291 290 290 290 290 290 292 293 293 294 294 294 295 294 293 292
260 261 263 264 265 267 269 269 269 272 274 278 280 281 282 282 282 284 285 288 289 290 290 290 291 291 290 290 290 289 289 290 290 291 292 293 293 294 294 294 294 294 294
262 263 263 263 263 265 268 269 270 272 273 275 278 280 281 280 280 282 284 285 286 287 289 290 289 290 290 290 289 288 288 288 290 291 291 292 293 293 294 294 294 293 293
Height
5924 5921 5918 5916 5913 5911 5909 5907 5905 5904 5902 5901 5900 5900 5900 5899 5899 5899 5899 5899 5899 5899 5900 5900 5901 5901 5901 5901 5902 5902 5902 5902 5902 5902 5903 5903 5902 5902 5902 5902 5901 5901 5900
5925 5921 5919 5916 5914 5911 5910 5908 5906 5904 5903 5902 5901 5900 5900 5899 5899 5899 5899 5899 5899 5899 5899 5899 5899 5900 5900 5900 5900 5900 5901 5901 5901 5901 5901 5901 5901 5900 5900 5900 5899 5899 5898
5925 5922 5920 5917 5914 5912 5910 5908 5906 5904 5903 5902 5901 5900 5899 5899 5899 5899 5899 5898 5898 5898 5898 5898 5898 5898 5898 5899 5899 5899 5899 5899 5899 5899 5899 5899 5899 5898 5898 5897 5896 5896 5895
5926 5923 5920 5917 5914 5912 5910 5908 5906 5904 5903 5901 5901 5900 5899 5899 5899 5898 5898 5897 5897 5897 5897 5897 5897 5897 5897 5897 5897 5897 5897 5897 5897 5897 5896 5896 5896 5895 5895 5895 5894 5893 5892
5926 5923 5920 5917 5915 5912 5910 5908 5906 5904 5903 5901 5900 5899 5899 5898 5898 5898 5897 5896 5896 5896 5895 5895 5895 5895 5895 5895 5894 5894 5894 5894 5894 5894 5894 5893 5893 5892 5892 5891 5891 5890 5889
5925 5922 5920 5917 5915 5912 5910 5908 5906 5904 5903 5901 5900 5899 5898 5898 5897 5897 5896 5895 5895 5894 5894 5894 5893 5893 5893 5893 5892 5892 5891 5891 5891 5891 5890 5890 5889 5889 5888 5887 5887 5886 5885
5925 5922 5919 5917 5914 5912 5910 5908 5906 5904 5902 5901 5900 5899 5898 5897 5896 5896 5895 5894 5893 5893 5892 5892 5892 5891 5891 5890 5889 5889 5888 5888 5888 5887 5887 5886 5886 5885 5884 5883 5883 5882 5881
5924 5921 5919 5916 5914 5912 5910 5908 5906 5904 5902 5901 5900 5899 5898 5897 5895 5895 5893 5892 5892 5891 5890 5890 5889 5889 5888 5888 5887 5886 5885 5885 5885 5884 5883 5883 5882 5881 5880 5879 5878 5877 5876
5923 5921 5918 5916 5913 5911 5909 5908 5906 5904 5902 5901 5899 5898 5897 5896 5895 5893 5892 5891 5890 5889 5889 5888 5887 5886 5886 5885 5884 5883 5883 5882 5882 5881 5880 5879 5878 5877 5876 5875 5874 5873 5872
5921 5919 5917 5915 5913 5911 5909 5907 5905 5903 5902 5900 5899 5897 5896 5895 5894 5892 5891 5889 5888 5888 5887 5885 5884 5883 5883 5882 5881 5880 5880 5879 5878 5877 5876 5875 5874 5873 5872 5871 5869 5868 5867
5919 5918 5916 5914 5912 5910 5908 5906 5904 5903 5901 5900 5898 5897 5895 5894 5892 5891 5890 5888 5887 5886 5885 5883 5882 5881 5880 5879 5878 5877 5876 5876 5875 5874 5873 5872 5870 5869 5868 5867 5865 5864 5863
5917 5916 5914 5913 5911 5909 5907 5905 5903 5902 5900 5899 5897 5896 5894 5893 5891 5890 5888 5887 5886 5884 5883 5882 5880 5879 5877 5876 5875 5874 5873 5872 5871 5870 5869 5868 5867 5865 5864 5863 5861 5860 5858
5915 5914 5912 5911 5910 5908 5906 5904 5902 5901 5899 5898 5896 5894 5893 5892 5890 5888 5887 5885 5884 5882 5881 5879 5878 5876 5875 5873 5872 5871 5870 5869 5868 5867 5866 5864 5863 5862 5860 5859 5857 5856 5854
5912 5911 5910 5909 5908 5906 5904 5903 5901 5899 5898 5896 5895 5893 5891 5890 5888 5887 5885 5884 5882 5880 5879 5877 5875 5873 5871 5870 5869 5868 5867 5866 5864 5863 5862 5860 5859 5858 5856 5855 5853 5851 5849
5909 5908 5907 5906 5905 5903 5902 5900 5899 5897 5896 5894 5893 5891 5889 5888 5886 5885 5883 5881 5880 5878 5876 5874 5873 5870 5869 5867 5866 5864 5863 5862 5861 5859 5858 5856 5855 5853 5852 5850 5849 5847 5845
5905 5904 5904 5903 5902 5900 5899 5898 5896 5894 5893 5891 5890 5888 5887 5885 5884 5882 5880 5878 5877 5875 5873 5871 5869 5867 5865 5864 5862 5861 5860 5858 5856 5855 5853 5852 5850 5848 5847 5845 5844 5842 5840
5900 5900 5899 5899 5898 5897 5896 5894 5893 5891 5890 5888 5887 5885 5884 5882 5880 5879 5877 5875 5873 5872 5870 5868 5866 5864 5862 5860 5858 5857 5855 5854 5852 5850 5848 5847 5845 5843 5842 5840 5838 5836 5834
5895 5895 5894 5894 5893 5892 5891 5890 5889 5888 5886 5884 5882 5881 5880 5878 5877 5875 5873 5871 5870 5868 5866 5864 5862 5860 5858 5856 5854 5852 5851 5849 5847 5845 5843 5841 5840 5838 5836 5834 5832 5830 5828
5889 5889 5889 5888 5888 5887 5886 5886 5885 5884 5882 5880 5879 5877 5875 5874 5872 5871 5869 5867 5865 5864 5862 5860 5858 5856 5854 5852 5850 5848 5846 5844 5842 5840 5838 5836 5834 5832 5830 5828 5826 5824 5822
5883 5883 5883 5883 5882 5882 5881 5880 5880 5879 5877 5876 5874 5873 5871 5869 5867 5866 5864 5862 5861 5859 5857 5855 5854 5852 5849 5847 5845 5843 5841 5839 5837 5834 5832 5830 5828 5826 5824 5822 5820 5817 5815
5875 5876 5876 5876 5876 5875 5874 5874 5874 5873 5872 5870 5869 5867 5865 5864 5862 5861 5859 5857 5856 5853 5852 5850 5848 5846 5844 5842 5840 5837 5835 5833 5830 5828 5826 5824 5821 5819 5817 5815 5813 5810 5808
5867 5868 5868 5868 5868 5867 5867 5866 5866 5866 5865 5863 5862 5860 5859 5858 5856 5855 5853 5851 5849 5848 5845 5843 5842 5840 5837 5835 5833 5831 5829 5826 5824 5821 5819 5817 5814 5812 5809 5807 5805 5802 5800
5858 5858 5859 5859 5859 5859 5859 5858 5858 5858 5857 5855 5854 5853 5851 5850 5850 5848 5847 5845 5843 5840 5838 5836 5834 5832 5830 5828 5826 5823 5821 5819 5816 5814 5811 5809 5806 5804 5801 5799 5796 5793 5791
5848 5848 5849 5849 5850 5850 5850 5849 5849 5849 5848 5847 5846 5845 5844 5843 5842 5840 5839 5837 5835 5833 5830 5828 5826 5824 5822 5820 5817 5815 5813 5811 5808 5806 5803 5801 5798 5795 5793 5790 5787 5785 5782
5837 5838 5839 5840 5840 5840 5840 5840 5839 5839 5839 5838 5837 5836 5835 5834 5833 5831 5830 5828 5826 5824 5822 5820 5817 5815 5813 5811 5809 5806 5804 5802 5800 5797 5794 5792 5789 5786 5784 5781 5778 5776 5773
5827 5827 5828 5829 5829 5830 5830 5830 5830 5829 5829 5828 5828 5827 5825 5824 5823 5822 5820 5818 5817 5814 5813 5811 5809 5806 5804 5802 5800 5797 5795 5792 5790 5788 5785 5782 5780 5777 5774 5772 5769 5766 5763